User: anonymous   Login
Location: Unspecified
(0.0000°N, 0.0000°E)
Time: 14:57:09
(UTC+01:00)
Language:

Cosmos 1898 Rocket - Orbit

View from above orbital plane
View from above orbital plane
View from above satellite
View from above satellite

Ground track
Ground track

The orbit data is extracted from the following two-line orbital elements,

1 18586U 87098B   17321.61538509 +.00000082 +00000-0 +36650-4 0  9995
2 18586 074.0082 012.8114 0020419 029.8690 330.3623 14.36800869569092
Epoch (UTC): 17 November 2017 14:46:09
Eccentricity: 0.0020419
inclination: 74.0082°
perigee height: 754 km
apogee height: 783 km
right ascension of ascending node: 12.8114°
argument of perigee: 29.8690°
revolutions per day: 14.36800869
mean anomaly at epoch: 330.3623°
orbit number at epoch: 56909

The dashed part of the orbit path shows where the satellite is in the earth's shadow,  

DLR